COSMOS 2251 DEB, 34721

Orbit data source: Space-Track

COSMOS 2251 DEB, 34721 is space debris in LEO originally from a launch on Wed, 16 Jun 1993 UTC launched from the Plesetsk Missile And Space Complex (PKMTR). The debris from Iridium 33, an American commercial communications satellite, has been tracked extensively since its accidental collision with the defunct Russian satellite Cosmos 2251 in 2009. This event, occurring at high speed in low Earth orbit (LEO), generated thousands of pieces of space debris, significantly increasing the risk of further collisions. The Iridium 33 debris cloud has impacted space traffic management and orbital debris mitigation strategies, making it a subject of ongoing study in space situational awareness.

Loading next visibility...
Identifier
34721, 1993-036YP
Orbit
LEO
Country
Flag of CISCIS
Related business
Manufacturer
Unknown
Mission
Spacecraft
Bus & Motor
Unknown
Mass
Unknown
Launch date (UTC)
1993-06-16 (33 years ago)
Launch vehicle
Unknown
Launch site
Plesetsk Missile And Space Complex (PKMTR)
Object type
Payload
Rocket body
Debris
Shape & HBR
Unknown shape, 0.1 m
Radar Cross Section
Medium (>0.1 m² and <1 m²)

Expand to show TLE details & history
Last TLE update: 8 hours ago

TLE from 8 hours ago
0 COSMOS 2251 DEB
1 34721U 93036YP  26257.56364791  .00001395  00000-0  82484-3 0  9998
2 34721  73.9213 207.3229 0213757  91.2538  26.8306 13.97811703890026
Epoch: 2026-09-14T13:31Z
TLE epoch observation values (Epoch: 2026-09-14T13:31:39.179Z)
Latitude
57.10494°
Longitude
164.5568°
Altitude
772.412 km
Speed
7.544 km/s
True Right ascension
00h 04m 02s
True Declination
56° 56' 54"
Sunlit
Object was in full shadow at epoch
Visualization orbit readout
Latitude
Unknown
Longitude
Unknown
Altitude
Unknown
Speed
Unknown
Apparent Right ascension
Unknown
Apparent Declination
Unknown
Sunlit
N/A
Visualization observer readout
Local Sidereal Time
13:58:39
Azimuth
Unknown
Elevation
Unknown
Doppler factor
Unknown
Orbital elements
Apogee altitude
1,054.612 km
Perigee altitude
743.502 km
Semi-major axis
7,277.194 km
Eccentricity
0.02138
Inclination
73.9213°
RAAN
207.3229°
Arg. of periapsis
91.2538°
True anomaly
27.96308°
Mean anomaly
26.8306°
Eccentric anomaly
27.39411°
Mean motion
3.49621 °/min
Orbital period
102.97 mins
BSTAR
0.00082484
Loading maneuver chart data...
Computing Atmospheric mass density...

Documentation

Showing up to 5 results
|